Muscatine, IA

4:29 AM CST on December 13, 2019 (GMT -0600)
Muscatine Municipal

Weather History for KMUT - October, 2019

Change the Weather History Date:

Wednesday, October 16, 2019

  Actual Average Record
Temperature  
Mean Temperature 45 °F -  
Max Temperature 51 °F 66 °F 85 °F (1950)
Min Temperature 39 °F 42 °F 28 °F (1952)
Degree Days  
Heating Degree Days 20    
Moisture  
Dew Point 36 °F    
Average Humidity 69    
Maximum Humidity 87    
Minimum Humidity 50    
Precipitation  
Precipitation 0.00 in - - ()
Sea Level Pressure  
Sea Level Pressure 30.07 in    
Wind  
Wind Speed 12 mph (NW)    
Max Wind Speed 20 mph    
Max Gust Speed 30 mph    
Visibility 10 miles    
Events      
Averages and records for this station are not official NWS values.
T = Trace of Precipitation, MM = Missing Value Source: NWS Daily Summary

Daily Weather History Graph

Daily Weather History Graph

Search for Another Location

Airport or City:

Astronomy

Oct. 16, 2019 Rise Set
Actual Time 7:17 AM CDT 6:22 PM CDT
Civil Twilight 6:49 AM CDT 6:50 PM CDT
Nautical Twilight 6:17 AM CDT 7:22 PM CDT
Astronomical Twilight 5:45 AM CDT 7:54 PM CDT
Moon 8:14 PM CDT (10/16) 9:49 AM CDT (10/16)
Length of Visible Light 12h 00m
Length of Day
11h 05m
Waning Gibbous, 92% of the Moon is Illuminated
Oct 16
Waning Gibbous
Oct 21
Last Quarter
Oct 27
New
Nov 4
First Quarter
Nov 12
Full

Hourly Weather History & Observations

Time (CDT) Temp. Windchill Dew Point Humidity Pressure Visibility Wind Dir Wind Speed Gust Speed Precip Events Conditions
12:15 AM 46.4 °F 40.1 °F 37.4 °F 71% 29.99 in 10.0 mi WNW 15.0 mph - N/A   Clear
12:35 AM 44.6 °F 38.1 °F 37.4 °F 76% 29.99 in 10.0 mi WNW 13.8 mph 21.9 mph N/A   Partly Cloudy
12:55 AM 44.6 °F 38.1 °F 37.4 °F 76% 30.00 in 10.0 mi WNW 13.8 mph 20.7 mph N/A   Partly Cloudy
1:15 AM 44.6 °F 37.8 °F 37.4 °F 76% 30.00 in 10.0 mi NW 15.0 mph 23.0 mph N/A   Clear
1:35 AM 44.6 °F 36.9 °F 37.4 °F 76% 30.00 in 10.0 mi WNW 18.4 mph - N/A   Clear
1:55 AM 44.6 °F 37.8 °F 37.4 °F 76% 30.00 in 10.0 mi WNW 15.0 mph - N/A   Clear
2:15 AM 42.8 °F 36.2 °F 37.4 °F 81% 30.00 in 10.0 mi WNW 12.7 mph 19.6 mph N/A   Clear
2:35 AM 42.8 °F 36.2 °F 37.4 °F 81% 30.00 in 10.0 mi WNW 12.7 mph - N/A   Clear
2:55 AM 42.8 °F 36.2 °F 37.4 °F 81% 30.01 in 10.0 mi WNW 12.7 mph 19.6 mph N/A   Clear
3:15 AM 42.8 °F 36.6 °F 37.4 °F 81% 30.01 in 10.0 mi NW 11.5 mph 17.3 mph N/A   Clear
3:35 AM 42.8 °F 36.2 °F 37.4 °F 81% 30.02 in 10.0 mi NW 12.7 mph 19.6 mph N/A   Scattered Clouds
3:55 AM 44.6 °F 38.4 °F 39.2 °F 81% 30.01 in 10.0 mi WNW 12.7 mph 20.7 mph N/A   Overcast
4:15 AM 44.6 °F 38.4 °F 39.2 °F 81% 30.01 in 10.0 mi WNW 12.7 mph 21.9 mph N/A   Overcast
4:35 AM 44.6 °F 38.4 °F 39.2 °F 81% 30.01 in 10.0 mi NW 12.7 mph 19.6 mph N/A   Overcast
4:55 AM 46.4 °F 40.4 °F 39.2 °F 76% 30.02 in 10.0 mi NW 13.8 mph - N/A   Overcast
5:35 AM 46.4 °F 41.1 °F 39.2 °F 76% 30.02 in 10.0 mi NW 11.5 mph - N/A   Overcast
5:55 AM 46.4 °F 40.7 °F 39.2 °F 76% 30.03 in 10.0 mi NW 12.7 mph - N/A   Overcast
6:15 AM 46.4 °F 40.7 °F 37.4 °F 71% 30.03 in 10.0 mi NW 12.7 mph - N/A   Overcast
6:35 AM 46.4 °F 40.4 °F 37.4 °F 71% 30.04 in 10.0 mi NW 13.8 mph 21.9 mph N/A   Overcast
6:55 AM 46.4 °F 41.1 °F 37.4 °F 71% 30.04 in 10.0 mi NW 11.5 mph 19.6 mph N/A   Overcast
7:15 AM 46.4 °F 39.5 °F 35.6 °F 66% 30.05 in 10.0 mi NNW 17.3 mph 25.3 mph N/A   Overcast
7:35 AM 46.4 °F 39.5 °F 33.8 °F 62% 30.05 in 10.0 mi NNW 17.3 mph - N/A   Overcast
7:55 AM 46.4 °F 39.8 °F 33.8 °F 62% 30.05 in 10.0 mi NNW 16.1 mph 27.6 mph N/A   Overcast
8:15 AM 46.4 °F 39.8 °F 33.8 °F 62% 30.06 in 10.0 mi NNW 16.1 mph 23.0 mph N/A   Overcast
8:35 AM 46.4 °F 41.1 °F 33.8 °F 62% 30.07 in 10.0 mi NNW 11.5 mph 20.7 mph N/A   Overcast
9:15 AM 46.4 °F 40.7 °F 35.6 °F 66% 30.08 in 10.0 mi NNW 12.7 mph 19.6 mph N/A   Overcast
9:35 AM 46.4 °F 40.7 °F 33.8 °F 62% 30.08 in 10.0 mi NNW 12.7 mph 20.7 mph N/A   Overcast
9:55 AM 46.4 °F 40.7 °F 35.6 °F 66% 30.09 in 10.0 mi NNW 12.7 mph 26.5 mph N/A   Overcast
10:15 AM 46.4 °F 39.8 °F 35.6 °F 66% 30.09 in 10.0 mi NW 16.1 mph - N/A   Overcast
10:35 AM 48.2 °F - 35.6 °F 62% 30.10 in 10.0 mi NNW 19.6 mph - N/A   Overcast
10:55 AM 48.2 °F - 35.6 °F 62% 30.10 in 10.0 mi NNW 16.1 mph 29.9 mph N/A   Overcast
11:15 AM 48.2 °F - 35.6 °F 62% 30.11 in 10.0 mi NW 13.8 mph 20.7 mph N/A   Overcast
11:35 AM 48.2 °F - 35.6 °F 62% 30.11 in 10.0 mi NW 15.0 mph 20.7 mph N/A   Overcast
12:15 PM 50.0 °F - 35.6 °F 58% 30.11 in 10.0 mi NNW 15.0 mph - N/A   Overcast
12:35 PM 50.0 °F - 37.4 °F 62% 30.10 in 10.0 mi WNW 13.8 mph 21.9 mph N/A   Overcast
12:55 PM 50.0 °F - 35.6 °F 58% 30.10 in 10.0 mi NNW 11.5 mph 21.9 mph N/A   Overcast
1:15 PM 50.0 °F - 35.6 °F 58% 30.10 in 10.0 mi NNW 16.1 mph 23.0 mph N/A   Overcast
1:35 PM 50.0 °F - 35.6 °F 58% 30.10 in 10.0 mi WNW 17.3 mph - N/A   Overcast
1:55 PM 50.0 °F - 35.6 °F 58% 30.10 in 10.0 mi NW 10.4 mph 18.4 mph N/A   Overcast
2:15 PM 50.0 °F - 35.6 °F 58% 30.09 in 10.0 mi WNW 16.1 mph 21.9 mph N/A   Overcast
2:35 PM 50.0 °F - 35.6 °F 58% 30.09 in 10.0 mi NW 15.0 mph 20.7 mph N/A   Overcast
2:55 PM 50.0 °F - 35.6 °F 58% 30.08 in 10.0 mi NW 11.5 mph 18.4 mph N/A   Overcast
3:15 PM 50.0 °F - 35.6 °F 58% 30.08 in 10.0 mi NW 13.8 mph - N/A   Overcast
3:35 PM 50.0 °F - 35.6 °F 58% 30.08 in 10.0 mi NW 12.7 mph 18.4 mph N/A   Overcast
3:55 PM 50.0 °F - 35.6 °F 58% 30.08 in 10.0 mi NW 15.0 mph - N/A   Overcast
4:15 PM 50.0 °F - 35.6 °F 58% 30.09 in 10.0 mi WNW 11.5 mph - N/A   Overcast
4:35 PM 50.0 °F - 35.6 °F 58% 30.08 in 10.0 mi NW 12.7 mph - N/A   Overcast
4:55 PM 51.8 °F - 35.6 °F 54% 30.08 in 10.0 mi WNW 12.7 mph - N/A   Mostly Cloudy
5:15 PM 51.8 °F - 33.8 °F 50% 30.08 in 10.0 mi NW 12.7 mph 23.0 mph N/A   Mostly Cloudy
5:35 PM 50.0 °F - 33.8 °F 54% 30.08 in 10.0 mi NW 10.4 mph 18.4 mph N/A   Overcast
5:55 PM 48.2 °F - 33.8 °F 58% 30.08 in 10.0 mi NNW 8.1 mph - N/A   Overcast
6:15 PM 48.2 °F - 33.8 °F 58% 30.08 in 10.0 mi NNW 5.8 mph - N/A   Overcast
6:35 PM 48.2 °F - 33.8 °F 58% 30.08 in 10.0 mi NW 4.6 mph - N/A   Overcast
6:55 PM 46.4 °F 44.3 °F 35.6 °F 66% 30.09 in 10.0 mi WNW 4.6 mph - N/A   Overcast
7:15 PM 44.6 °F 41.4 °F 35.6 °F 71% 30.09 in 10.0 mi WNW 5.8 mph - N/A   Overcast
7:35 PM 44.6 °F 42.2 °F 37.4 °F 76% 30.09 in 10.0 mi WNW 4.6 mph - N/A   Overcast
7:55 PM 44.6 °F 42.2 °F 37.4 °F 76% 30.09 in 10.0 mi West 4.6 mph - N/A   Mostly Cloudy
8:15 PM 44.6 °F 42.2 °F 35.6 °F 71% 30.09 in 10.0 mi West 4.6 mph - N/A   Mostly Cloudy
8:35 PM 42.8 °F 39.3 °F 35.6 °F 76% 30.09 in 10.0 mi West 5.8 mph - N/A   Scattered Clouds
8:55 PM 41.0 °F 37.1 °F 37.4 °F 87% 30.10 in 10.0 mi West 5.8 mph - N/A   Mostly Cloudy
9:15 PM 41.0 °F 39.0 °F 37.4 °F 87% 30.10 in 10.0 mi West 3.5 mph - N/A   Overcast
9:35 PM 41.0 °F - 37.4 °F 87% 30.10 in 10.0 mi Calm Calm - N/A   Overcast
9:55 PM 42.8 °F - 37.4 °F 81% 30.10 in 10.0 mi Calm Calm - N/A   Overcast
10:15 PM 41.0 °F - 37.4 °F 87% 30.09 in 10.0 mi Calm Calm - N/A   Overcast
10:35 PM 42.8 °F - 35.6 °F 76% 30.09 in 10.0 mi Calm Calm - N/A   Mostly Cloudy
10:55 PM 41.0 °F - 35.6 °F 81% 30.09 in 10.0 mi Calm Calm - N/A   Clear
11:15 PM 39.2 °F - 35.6 °F 87% 30.09 in 10.0 mi Calm Calm - N/A   Clear
11:35 PM 39.2 °F - 35.6 °F 87% 30.10 in 10.0 mi Calm Calm - N/A   Clear
11:55 PM 39.2 °F 37.0 °F 35.6 °F 87% 30.10 in 10.0 mi WNW 3.5 mph - N/A   Clear